User: anonymous   Login
Location: Unspecified
(0.0000°N, 0.0000°E)
Time: 23:19:14
(UTC+00:00)
Language:

CARTOSAT-1 - Orbit

View from above orbital plane
View from above orbital plane
View from above satellite
View from above satellite

Ground track
Ground track

The orbit data is extracted from the following two-line orbital elements,

1 28649U 05017A   18294.80603488  .00000109  00000-0  19563-4 0  9991
2 28649  97.8121   4.9921 0000667 193.8075 166.3112 14.83484474728864
Epoch (UTC): 21 October 2018 19:20:41
Eccentricity: 0.0000667
inclination: 97.8121°
perigee height: 618 km
apogee height: 619 km
right ascension of ascending node: 4.9921°
argument of perigee: 193.8075°
revolutions per day: 14.83484474
mean anomaly at epoch: 166.3112°
orbit number at epoch: 72886

The dashed part of the orbit path shows where the satellite is in the earth's shadow,  

DLR